Погода в Рубцовске

Хотите узнать прогноз погоды в Рубцовске? Тогда Вам сюда: Погода в Рубцовске

Поиск расширенной информации на нашем сайте:

Полезная информация:

Новости сайта



02.01.2020
Опубликован Долгосрочный прогноз погоды по городам России и ближнего зарубежья на январь 2020 года.
Карты: Прогноз на январь и февраль 2020 года, Сравнение прогнозируемой аномалии приземной температуры воздуха на январь 2020 года по разным моделям.




Погода в Рубцовске - сегодня

Время (UTC), дата Ветер
(°,м/с) 
Видим.   Явления Облачность Т
(°С)
Тd
(°С)
f(%) Тe
(°С)
Pmin
(гПа)
dP
(гПа)
Po
(мм)
O2
(г/м3)
Тmin Tmax R s Состояние
почвы
15 02.07.20 050 (СВ) 20000 м    3/0 средняя 
[Ac trans]
+22.3 +14.5 61 +31  1005.9  0.7  736  271           
18 02.07.20 140 (ЮВ) 20000 м    1/0 верхняя 
[Ci fib]
+17.8 +13 73 +25  1006.5  0.2  736  276           
21 02.07.20 360 (С) 20000 м    ясно 
+15.6 +12.1 80 +21  1005.2  -1.4  735  278           
00 03.07.20 010 (С) 20000 м    10/0 средняя 
[Ac und]
+15.4 +13.3 87 +22  1005.3  0.1  735  278  +11.9        сухая 
03 03.07.20 150 (ЮВ) 20000 м    10/0 верхняя 
[Ci fib]
+23.1 +13.3 54 +29  1004.5  -0.1  735  270           
06 03.07.20 210 (ЮЗ) 20000 м    10/0 верхняя 
[Ci sp]
+27.6 +15.4 47 +38  1004.3  0.2  735  266           
09 03.07.20 220 (ЮЗ) 7-13{13}  20000 м    10/0 верхняя 
[Ci sp]
+27.2 +10.8 36 +30  1004.2  -0.2  735  267           
12 03.07.20 160 (Ю) 5{13}  20000 м    10/0 верхняя 
[Ci sp]
+25.4 +9.1 36 +26  1006.2  1.7  736  270    +30       
15 03.07.20 140 (ЮВ) 20000 м    10/6 600 м верхняя 
[Sc|Ci sp]
+23.1 +11.4 48 +27  1006.5  0.1  736  271           
18 03.07.20 140 (ЮВ) 20000 м    10/3 600 м верхняя 
[Sc|Ci sp]
+21 +10.6 51 +23  1006.5  -0.2  736  273           
21 03.07.20 170 (Ю) 20000 м    10/0 верхняя 
[Ci sp]
+18.2 +11.7 66 +22  1007.3  0.6  736  276           
00 04.07.20 140 (ЮВ) 20000 м    6/0 верхняя 
[Ci sp]
+17.4 +12.4 72 +23  1006.2  -1.2  736  276  +17.4        сухая 
03 04.07.20 200 (Ю) 4{11}  20000 м    8/8 1000 м 
[Cu Sc]
+19.8 +12.3 62 +25  1006.8  0.8  736  274  +17         
06 04.07.20 140 (ЮВ) 6-10{11}  20000 м    8/4 600 м кучево-дожд., средняя 
[Cb cap|Ac trans]
+23 +13 53 +29  1005.9  -0.6  736  271           
09 04.07.20 170 (Ю) 5-10{11}  20000 м    9/5 1000 м средняя, верхняя 
[Cu med, cong|Ac trans|Ci sp]
+24 +11.2 45 +27  1004.2  -1.5  735  270           
12 04.07.20 210 (ЮЗ) 4{11}  20000 м    8/8 600 м кучево-дожд. 
[Cb cap]
+22 +12.5 55 +27  1003.9  -0.4  734  271    +25.9       
15 04.07.20 190 (Ю) 5{10}  20000 м  {ливн. осадки}  8/8 600 м кучево-дожд. 
[Cb cap]
+21 +11.7 55 +25  1004.9  0.9  735  273           
18 04.07.20 140 (ЮВ) 20000 м  {ливн. осадки}  10/5 600 м кучево-дожд., средняя 
[Cb cap|Ac und]
+18 +11.8 67 +23  1005.1  -0.1  735  276           
21 04.07.20 140 (ЮВ) 20000 м  {ливн. осадки}  8/5 1000 м кучево-дожд., верхняя 
[Cb cap|Ci sp]
+16.6 +13 79 +23  1004.7  -0.5  734  276           
00 05.07.20 150 (ЮВ) 20000 м  {ливн. осадки}  10/4 1000 м кучево-дожд., средняя 
[Cb cap|Ac lent]
+17 +13.5 80 +25  1005.2  0.5  735  276  +16.5    0.3    сухая 
03 05.07.20 160 (Ю) 20000 м  {ливн. осадки}  8/3 1000 м средняя 
[Sc|Ac As]
+19.1 +14.1 73 +28  1005.1  0.1  735  274           
06 05.07.20 190 (Ю) 20000 м  {ливн. осадки}  6/5 1000 м верхняя 
[Cu med, cong|Ci sp]
+22.8 +13.7 56 +30  1004.3  -0.4  735  270           
09 05.07.20 160 (Ю) 7{10}  20000 м  осадки на расстоянии  8/8 600 м кучево-дожд. 
[Cb cap]
+20.4 +13.6 65 +27  1004  -0.6  734  273           
12 05.07.20 120 (ЮВ) 20000 м    8/6 1000 м верхняя 
[Cu med, cong|Ci sp]
+23.4 +14.7 58 +32  1003.5  -0.2  734  269    +25.6  0.0     
15 05.07.20 170 (Ю) 20000 м    6/6 1000 м 
[Sc diur, vesp]
+21.9 +15.6 67 +32  1003.9  0.3  734  271           
Время (UTC), дата Ветер
(°,м/с) 
Видим.   Явления Облачность Т
(°С)
Тd
(°С)
f(%) Тe
(°С)
Pmin
(гПа)
dP
(гПа)
Po
(мм)
O2
(г/м3)
Тmin Tmax R s Состояние
почвы

Для получения пояснительной информации подведите курсор к названию столбца.

ПОГОДА в Рубцовске - архив

Всё, что Вы хотите узнать о погоде в Рубцовске - удобно и подробно!

Выберите нужную дату (начиная с 1 января 2019* года) и нажмите кнопку "Найти".
Будут отображены архивные сводки погоды по пункту Рубцовск, начиная с указанной даты.


Отображать данные в формате CSV (для использования в таблицах Excel)


Внимание! Наш архив погоды предназначен исключительно для личного некоммерческого использования в познавательных целях. Если Вам необходимы официальные справки о состоянии погоды (для производственных, юридических, коммерческих и т.п. целей), обращайтесь в органы Росгидромета.

*Примечание: данная дата относится к архиву по метеостанциям СССР (Россия, СНГ, Балтия).
Архив по метеостанциям Зарубежной Европы и Азии (кроме Китая) хранится 10 дней, по другим регионам земного шара (Китай, Африка, Америка, Австралия, Океания) - 1 день.

Рубцовск - район местоположения метеостанции


Название, широта, долгота, высота метеостанции:
Рубцовск 51.5°ш. 81.2°д. 219 м над ур. моря [Российская Федерация]

Дополнительная информация

В oтличие oт бoльшинства пoгoдных сайтoв мы публикуем пoдрoбную метеoинфoрмацию в детальнoм прoфессиoнальнoм фoрмате.

Характеристики температуры и влажнoсти вoздуха измеряются на высoте 2 м в тени вдали oт зданий и деревьев.
Скoрoсть ветра измеряется на высoте 10 м (на урoвне рoста челoвека скoрoсть ветра ниже в 1.5-2 раза). Если метеoстанция нахoдится в гoрoде или в лесу, тo скoрoсть ветра занижена на 2-4 м/с пo сравнению с oткрытым местoм. Скoрoсть ветра над акватoриями крупных рек и oзёр, а также на вершинах хoлмoв на 2-5 м/с выше, чем в oбычных услoвиях.
Атмoсфернoе давление в разных тoчках местнoсти мoжет значительнo oтличаться oт давления на метеoстанции, в зависимoсти oт услoвий рельефа (при пoдъёме на 10 м давление пoнижается примернo на 1 мм рт.ст.).